Back to Top

Language: 

My Weather Underground Personal Weather Station Historical Data with Graphs...

Delerius Weather Station Historical Data
Daily Summary for September 17, 2017 Units:  English    Metric   Both
« Previous Day
Next Day »
Daily Weekly Monthly Yearly Custom
  High: Low: Average:
Temperature: 63.3 °F 47.7 °F 54.3 °F
Dew Point: 54.7 °F 45.7 °F 51.1 °F
Humidity: 95 % 67 % 89 %
Wind Speed: 11.0 mph 0.0 mph 4.4 mph
Wind Gust: 24.0 mph - -
Wind:- - West
Pressure: 30.03 in 29.91 in -
Precipitation: 0.02 in    
Historical Graphs
 
 
Tabular Data for September 17, 2017
Time Temperature Dew Point Pressure Wind Wind Speed Wind Gust Humidity Rainfall Rate (Hourly) solar Conditions
00:04 47.7 °F 45.7 °F 29.92 in Calm     93 % 0.00 in 0 W/m2
00:09 47.7 °F 45.7 °F 29.92 in Calm     93 % 0.00 in 0 W/m2
00:14 47.7 °F 45.7 °F 29.92 in Calm   4.0 mph 93 % 0.00 in 0 W/m2
00:19 47.8 °F 46.2 °F 29.92 in NW 1.0 mph 5.0 mph 94 % 0.00 in 0 W/m2
00:24 47.8 °F 46.2 °F 29.92 in NW 2.0 mph 6.0 mph 94 % 0.00 in 0 W/m2
00:29 48.0 °F 46.4 °F 29.92 in NW 1.0 mph 6.0 mph 94 % 0.00 in 0 W/m2
00:34 48.2 °F 46.6 °F 29.92 in Calm   4.0 mph 94 % 0.00 in 0 W/m2
00:39 48.4 °F 46.7 °F 29.92 in Calm   4.0 mph 94 % 0.00 in 0 W/m2
00:44 48.4 °F 46.7 °F 29.92 in Calm   1.0 mph 94 % 0.00 in 0 W/m2
00:49 48.2 °F 46.3 °F 29.92 in Calm     93 % 0.00 in 0 W/m2
00:54 48.4 °F 46.7 °F 29.92 in NW 1.0 mph 4.0 mph 94 % 0.00 in 0 W/m2
00:59 48.4 °F 46.7 °F 29.92 in NW 1.0 mph 5.0 mph 94 % 0.00 in 0 W/m2
01:04 48.6 °F 46.9 °F 29.92 in NW 2.0 mph 5.0 mph 94 % 0.00 in 0 W/m2
01:09 48.6 °F 46.9 °F 29.92 in NW 3.0 mph 6.0 mph 94 % 0.00 in 0 W/m2
01:14 48.6 °F 46.9 °F 29.92 in NW 3.0 mph 7.0 mph 94 % 0.00 in 0 W/m2
01:19 48.7 °F 47.1 °F 29.92 in NW 3.0 mph 7.0 mph 94 % 0.00 in 0 W/m2
01:24 48.7 °F 47.1 °F 29.92 in NW 2.0 mph 6.0 mph 94 % 0.00 in 0 W/m2
01:29 48.9 °F 47.3 °F 29.92 in NW 1.0 mph 6.0 mph 94 % 0.00 in 0 W/m2
01:34 48.9 °F 47.3 °F 29.92 in NW 1.0 mph 6.0 mph 94 % 0.00 in 0 W/m2
01:39 49.1 °F 47.4 °F 29.92 in NW 3.0 mph 6.0 mph 94 % 0.00 in 0 W/m2
01:44 49.3 °F 47.6 °F 29.92 in NW 2.0 mph 6.0 mph 94 % 0.00 in 0 W/m2
01:49 49.3 °F 47.6 °F 29.92 in NW 1.0 mph 5.0 mph 94 % 0.00 in 0 W/m2
01:54 49.3 °F 47.6 °F 29.92 in NW 1.0 mph 4.0 mph 94 % 0.00 in 0 W/m2
01:59 49.3 °F 47.6 °F 29.92 in NW 1.0 mph 5.0 mph 94 % 0.00 in 0 W/m2
02:04 49.3 °F 47.6 °F 29.92 in NW 1.0 mph 5.0 mph 94 % 0.00 in 0 W/m2
02:09 49.3 °F 47.6 °F 29.92 in NW 1.0 mph 6.0 mph 94 % 0.00 in 0 W/m2
02:14 49.3 °F 47.6 °F 29.92 in NW 2.0 mph 6.0 mph 94 % 0.00 in 0 W/m2
02:19 49.3 °F 47.6 °F 29.92 in NW 1.0 mph 5.0 mph 94 % 0.00 in 0 W/m2
02:25 49.3 °F 47.6 °F 29.92 in NW 1.0 mph 5.0 mph 94 % 0.00 in 0 W/m2
02:30 49.5 °F 48.1 °F 29.92 in NW 2.0 mph 5.0 mph 95 % 0.00 in 0 W/m2
02:35 49.6 °F 48.3 °F 29.92 in NW 2.0 mph 6.0 mph 95 % 0.00 in 0 W/m2
02:40 49.6 °F 48.3 °F 29.92 in NW 3.0 mph 7.0 mph 95 % 0.00 in 0 W/m2
02:45 49.8 °F 48.4 °F 29.92 in NW 4.0 mph 7.0 mph 95 % 0.00 in 0 W/m2
02:50 50.0 °F 48.6 °F 29.92 in NW 4.0 mph 7.0 mph 95 % 0.00 in 0 W/m2
02:55 50.2 °F 48.8 °F 29.92 in NW 2.0 mph 6.0 mph 95 % 0.00 in 0 W/m2
03:00 50.2 °F 48.8 °F 29.92 in NNW 2.0 mph 7.0 mph 95 % 0.00 in 0 W/m2
03:05 50.2 °F 48.8 °F 29.92 in NW 2.0 mph 7.0 mph 95 % 0.00 in 0 W/m2
03:10 50.4 °F 49.0 °F 29.92 in NW 1.0 mph 5.0 mph 95 % 0.00 in 0 W/m2
03:15 50.4 °F 49.0 °F 29.92 in NW 2.0 mph 5.0 mph 95 % 0.00 in 0 W/m2
03:20 50.4 °F 49.0 °F 29.91 in NW 3.0 mph 7.0 mph 95 % 0.00 in 0 W/m2
03:25 50.4 °F 49.0 °F 29.91 in NW 3.0 mph 7.0 mph 95 % 0.00 in 0 W/m2
03:30 50.5 °F 49.2 °F 29.92 in NW 3.0 mph 6.0 mph 95 % 0.00 in 0 W/m2
03:35 50.5 °F 49.2 °F 29.91 in NW 2.0 mph 6.0 mph 95 % 0.00 in 0 W/m2
03:40 50.5 °F 49.2 °F 29.91 in NW 2.0 mph 7.0 mph 95 % 0.00 in 0 W/m2
03:45 50.5 °F 49.2 °F 29.91 in NW 2.0 mph 7.0 mph 95 % 0.00 in 0 W/m2
03:50 50.5 °F 49.2 °F 29.91 in NW 2.0 mph 6.0 mph 95 % 0.00 in 0 W/m2
03:55 50.5 °F 49.2 °F 29.91 in NW 1.0 mph 5.0 mph 95 % 0.00 in 0 W/m2
04:05 50.5 °F 49.2 °F 29.92 in NW 2.0 mph 6.0 mph 95 % 0.00 in 0 W/m2
04:06 50.5 °F 49.2 °F 29.92 in NW 2.0 mph 6.0 mph 95 % 0.00 in 0 W/m2
04:11 50.5 °F 49.2 °F 29.92 in NNW 2.0 mph 9.0 mph 95 % 0.00 in 0 W/m2
04:17 50.7 °F 49.3 °F 29.92 in NNW 2.0 mph 9.0 mph 95 % 0.00 in 0 W/m2
04:20 50.7 °F 49.3 °F 29.92 in NNW 3.0 mph 8.0 mph 95 % 0.00 in 0 W/m2
04:22 50.7 °F 49.3 °F 29.92 in NNW 3.0 mph 8.0 mph 95 % 0.00 in 0 W/m2
04:25 50.9 °F 49.5 °F 29.92 in NNW 3.0 mph 8.0 mph 95 % 0.00 in 0 W/m2
04:27 50.9 °F 49.5 °F 29.92 in NNW 3.0 mph 8.0 mph 95 % 0.00 in 0 W/m2
04:32 50.9 °F 49.5 °F 29.92 in North 4.0 mph 10.0 mph 95 % 0.00 in 0 W/m2
04:37 50.9 °F 49.5 °F 29.92 in North 4.0 mph 10.0 mph 95 % 0.00 in 0 W/m2
04:42 51.1 °F 49.7 °F 29.92 in NNW 2.0 mph 8.0 mph 95 % 0.00 in 0 W/m2
04:47 51.1 °F 49.7 °F 29.92 in NNW 1.0 mph 8.0 mph 95 % 0.00 in 0 W/m2
04:52 51.1 °F 49.7 °F 29.92 in NNW 1.0 mph 7.0 mph 95 % 0.00 in 0 W/m2
04:57 51.1 °F 49.7 °F 29.92 in NNW 1.0 mph 7.0 mph 95 % 0.00 in 0 W/m2
05:02 51.1 °F 49.7 °F 29.92 in North 2.0 mph 8.0 mph 95 % 0.00 in 0 W/m2
05:07 51.1 °F 49.7 °F 29.92 in North 4.0 mph 8.0 mph 95 % 0.00 in 0 W/m2
05:12 51.1 °F 49.7 °F 29.92 in NNW 4.0 mph 8.0 mph 95 % 0.00 in 0 W/m2
05:17 51.1 °F 49.7 °F 29.92 in NNW 3.0 mph 7.0 mph 95 % 0.00 in 0 W/m2
05:22 51.1 °F 49.7 °F 29.92 in NNW 4.0 mph 7.0 mph 95 % 0.00 in 0 W/m2
05:27 51.1 °F 49.4 °F 29.92 in NNW 4.0 mph 7.0 mph 94 % 0.00 in 0 W/m2
05:32 51.1 °F 49.4 °F 29.92 in NNW 4.0 mph 8.0 mph 94 % 0.00 in 0 W/m2
05:37 51.1 °F 49.4 °F 29.92 in North 4.0 mph 9.0 mph 94 % 0.00 in 0 W/m2
05:42 51.1 °F 49.4 °F 29.92 in North 4.0 mph 9.0 mph 94 % 0.00 in 0 W/m2
05:47 51.1 °F 49.7 °F 29.92 in North 3.0 mph 9.0 mph 95 % 0.00 in 0 W/m2
05:53 51.1 °F 49.7 °F 29.92 in North 2.0 mph 7.0 mph 95 % 0.00 in 0 W/m2
05:58 51.1 °F 49.7 °F 29.93 in NNW 3.0 mph 7.0 mph 95 % 0.00 in 0 W/m2
06:03 51.1 °F 49.7 °F 29.93 in NNW 3.0 mph 7.0 mph 95 % 0.00 in 0 W/m2
06:08 51.1 °F 49.7 °F 29.93 in NNW 3.0 mph 8.0 mph 95 % 0.00 in 0 W/m2
06:13 51.1 °F 49.7 °F 29.93 in NNW 3.0 mph 8.0 mph 95 % 0.00 in 0 W/m2
06:17 51.1 °F 49.7 °F 29.93 in NNW 3.0 mph 8.0 mph 95 % 0.00 in 0 W/m2
06:22 51.1 °F 49.7 °F 29.93 in NNW 3.0 mph 10.0 mph 95 % 0.00 in 0 W/m2
06:27 51.1 °F 49.7 °F 29.93 in NNW 4.0 mph 10.0 mph 95 % 0.00 in 0 W/m2
06:32 51.1 °F 49.7 °F 29.93 in NNW 3.0 mph 7.0 mph 95 % 0.00 in 0 W/m2
06:37 50.9 °F 49.5 °F 29.93 in NNW 3.0 mph 7.0 mph 95 % 0.00 in 0 W/m2
06:42 50.9 °F 49.5 °F 29.93 in North 3.0 mph 8.0 mph 95 % 0.00 in 0 W/m2
06:47 50.9 °F 49.5 °F 29.94 in NNW 3.0 mph 8.0 mph 95 % 0.00 in 5 W/m2
06:52 50.9 °F 49.5 °F 29.94 in NNW 3.0 mph 7.0 mph 95 % 0.00 in 7 W/m2
06:57 50.9 °F 49.5 °F 29.94 in NNW 4.0 mph 9.0 mph 95 % 0.00 in 11 W/m2
07:02 51.1 °F 49.7 °F 29.94 in NNW 4.0 mph 9.0 mph 95 % 0.00 in 18 W/m2
07:07 51.1 °F 49.7 °F 29.94 in NNW 3.0 mph 8.0 mph 95 % 0.00 in 25 W/m2
07:12 51.1 °F 49.7 °F 29.94 in NNW 3.0 mph 8.0 mph 95 % 0.00 in 33 W/m2
07:17 51.1 °F 49.7 °F 29.94 in NNW 3.0 mph 8.0 mph 95 % 0.00 in 28 W/m2
07:22 51.3 °F 49.9 °F 29.94 in NNW 3.0 mph 7.0 mph 95 % 0.00 in 42 W/m2
07:27 51.3 °F 49.9 °F 29.94 in NNW 3.0 mph 7.0 mph 95 % 0.00 in 44 W/m2
07:32 51.3 °F 49.9 °F 29.94 in NNW 3.0 mph 6.0 mph 95 % 0.00 in 37 W/m2
07:37 51.4 °F 50.1 °F 29.95 in NNW 2.0 mph 6.0 mph 95 % 0.00 in 33 W/m2
07:42 51.4 °F 50.1 °F 29.95 in NNW 2.0 mph 8.0 mph 95 % 0.00 in 35 W/m2
07:47 51.4 °F 50.1 °F 29.95 in NNW 3.0 mph 8.0 mph 95 % 0.00 in 47 W/m2
07:52 51.4 °F 50.1 °F 29.95 in NNW 4.0 mph 8.0 mph 95 % 0.00 in 51 W/m2
07:57 51.6 °F 50.2 °F 29.95 in NNW 4.0 mph 9.0 mph 95 % 0.00 in 74 W/m2
08:02 51.6 °F 50.2 °F 29.95 in NNW 4.0 mph 9.0 mph 95 % 0.00 in 49 W/m2
08:07 51.8 °F 50.4 °F 29.95 in NNW 4.0 mph 7.0 mph 95 % 0.00 in 69 W/m2
08:12 52.0 °F 50.6 °F 29.95 in NNW 3.0 mph 9.0 mph 95 % 0.00 in 84 W/m2
08:17 52.2 °F 50.8 °F 29.95 in NNW 3.0 mph 9.0 mph 95 % 0.00 in 167 W/m2
08:22 52.5 °F 51.1 °F 29.95 in NNW 4.0 mph 9.0 mph 95 % 0.00 in 142 W/m2
08:27 52.9 °F 51.5 °F 29.96 in NNW 4.0 mph 9.0 mph 95 % 0.00 in 176 W/m2
08:38 53.4 °F 51.7 °F 29.96 in NNW 5.0 mph 10.0 mph 94 % 0.00 in 243 W/m2
08:43 53.8 °F 51.8 °F 29.96 in NNW 6.0 mph 13.0 mph 93 % 0.00 in 287 W/m2
08:48 54.1 °F 51.9 °F 29.96 in North 7.0 mph 13.0 mph 92 % 0.00 in 330 W/m2
08:53 54.5 °F 52.2 °F 29.96 in North 6.0 mph 11.0 mph 92 % 0.00 in 294 W/m2
08:58 54.9 °F 52.3 °F 29.96 in NNW 7.0 mph 11.0 mph 91 % 0.00 in 265 W/m2
09:03 55.2 °F 52.3 °F 29.97 in North 6.0 mph 11.0 mph 90 % 0.00 in 448 W/m2
09:08 55.8 °F 52.9 °F 29.96 in North 5.0 mph 10.0 mph 90 % 0.00 in 225 W/m2
09:13 55.9 °F 52.4 °F 29.97 in North 4.0 mph 10.0 mph 88 % 0.00 in 163 W/m2
09:18 55.9 °F 52.7 °F 29.97 in North 3.0 mph 9.0 mph 89 % 0.00 in 181 W/m2
09:23 55.9 °F 52.4 °F 29.97 in NNE 4.0 mph 10.0 mph 88 % 0.00 in 475 W/m2
09:28 56.1 °F 52.3 °F 29.97 in NNE 6.0 mph 10.0 mph 87 % 0.00 in 176 W/m2
09:33 56.1 °F 52.3 °F 29.97 in NE 6.0 mph 10.0 mph 87 % 0.00 in 255 W/m2
09:38 56.1 °F 52.3 °F 29.97 in NNE 5.0 mph 10.0 mph 87 % 0.00 in 135 W/m2
09:43 56.1 °F 52.3 °F 29.97 in NNE 5.0 mph 10.0 mph 87 % 0.00 in 200 W/m2
09:48 56.1 °F 52.3 °F 29.97 in NNE 5.0 mph 10.0 mph 87 % 0.00 in 287 W/m2
09:53 56.3 °F 52.5 °F 29.97 in North 4.0 mph 10.0 mph 87 % 0.00 in 142 W/m2
09:58 56.3 °F 52.2 °F 29.97 in NNE 5.0 mph 11.0 mph 86 % 0.00 in 97 W/m2
10:03 56.3 °F 52.5 °F 29.97 in NNE 6.0 mph 11.0 mph 87 % 0.00 in 132 W/m2
10:08 56.3 °F 52.5 °F 29.97 in NNE 5.0 mph 11.0 mph 87 % 0.00 in 151 W/m2
10:13 56.3 °F 52.5 °F 29.97 in NNE 4.0 mph 11.0 mph 87 % 0.00 in 148 W/m2
10:18 56.3 °F 52.5 °F 29.97 in NNE 4.0 mph 11.0 mph 87 % 0.00 in 232 W/m2
10:23 56.8 °F 53.0 °F 29.97 in NNE 4.0 mph 10.0 mph 87 % 0.00 in 731 W/m2
10:28 57.6 °F 53.1 °F 29.97 in NNE 6.0 mph 18.0 mph 85 % 0.00 in 141 W/m2
10:33 57.4 °F 52.9 °F 29.97 in NNE 7.0 mph 18.0 mph 85 % 0.00 in 77 W/m2
10:38 56.7 °F 52.8 °F 29.97 in NNE 8.0 mph 13.0 mph 87 % 0.00 in 104 W/m2
10:43 56.3 °F 52.8 °F 29.97 in North 7.0 mph 13.0 mph 88 % 0.00 in 144 W/m2
10:48 56.1 °F 52.9 °F 29.97 in North 5.0 mph 12.0 mph 89 % 0.00 in 204 W/m2
10:54 56.1 °F 53.2 °F 29.97 in North 6.0 mph 11.0 mph 90 % 0.00 in 207 W/m2
10:59 56.1 °F 52.9 °F 29.97 in North 7.0 mph 11.0 mph 89 % 0.00 in 229 W/m2
11:04 56.1 °F 52.9 °F 29.97 in NNE 7.0 mph 13.0 mph 89 % 0.00 in 163 W/m2
11:09 56.3 °F 53.1 °F 29.97 in North 8.0 mph 13.0 mph 89 % 0.00 in 158 W/m2
11:14 56.5 °F 53.0 °F 29.97 in North 8.0 mph 15.0 mph 88 % 0.00 in 675 W/m2
11:19 57.0 °F 53.5 °F 29.97 in NNE 8.0 mph 15.0 mph 88 % 0.00 in 338 W/m2
11:24 57.4 °F 53.9 °F 29.97 in North 7.0 mph 13.0 mph 88 % 0.00 in 290 W/m2
11:29 57.4 °F 53.5 °F 29.97 in North 7.0 mph 13.0 mph 87 % 0.00 in 160 W/m2
11:34 57.6 °F 53.7 °F 29.97 in North 6.0 mph 13.0 mph 87 % 0.00 in 847 W/m2
11:39 57.7 °F 53.6 °F 29.97 in NNE 5.0 mph 14.0 mph 86 % 0.00 in 234 W/m2
11:44 58.3 °F 53.8 °F 29.97 in NNE 5.0 mph 14.0 mph 85 % 0.00 in 849 W/m2
11:49 58.5 °F 53.3 °F 29.97 in NNE 6.0 mph 14.0 mph 83 % 0.00 in 125 W/m2
11:54 58.3 °F 53.1 °F 29.97 in North 8.0 mph 14.0 mph 83 % 0.00 in 153 W/m2
11:59 58.1 °F 53.3 °F 29.97 in North 8.0 mph 14.0 mph 84 % 0.00 in 837 W/m2
12:04 58.3 °F 52.8 °F 29.96 in NNE 7.0 mph 14.0 mph 82 % 0.00 in 176 W/m2
12:09 58.6 °F 53.5 °F 29.96 in NNE 6.0 mph 13.0 mph 83 % 0.00 in 898 W/m2
12:14 59.2 °F 54.0 °F 29.97 in North 6.0 mph 12.0 mph 83 % 0.00 in 287 W/m2
12:19 59.4 °F 53.5 °F 29.97 in North 8.0 mph 13.0 mph 81 % 0.00 in 294 W/m2
12:24 59.2 °F 53.4 °F 29.97 in North 7.0 mph 13.0 mph 81 % 0.00 in 362 W/m2
12:29 59.4 °F 53.2 °F 29.97 in North 7.0 mph 12.0 mph 80 % 0.00 in 422 W/m2
12:34 59.4 °F 53.2 °F 29.97 in North 7.0 mph 12.0 mph 80 % 0.00 in 302 W/m2
12:39 59.4 °F 53.2 °F 29.97 in NNE 6.0 mph 12.0 mph 80 % 0.00 in 383 W/m2
12:44 59.5 °F 53.4 °F 29.97 in NNE 6.0 mph 13.0 mph 80 % 0.00 in 271 W/m2
12:49 59.7 °F 53.2 °F 29.97 in North 7.0 mph 13.0 mph 79 % 0.00 in 181 W/m2
12:54 59.5 °F 52.7 °F 29.97 in North 7.0 mph 14.0 mph 78 % 0.00 in 290 W/m2
12:59 59.5 °F 53.0 °F 29.97 in North 7.0 mph 14.0 mph 79 % 0.00 in 253 W/m2
13:04 59.5 °F 52.7 °F 29.96 in North 6.0 mph 14.0 mph 78 % 0.00 in 306 W/m2
13:09 60.1 °F 53.2 °F 29.96 in North 7.0 mph 13.0 mph 78 % 0.00 in 452 W/m2
13:14 60.4 °F 53.5 °F 29.96 in North 7.0 mph 14.0 mph 78 % 0.00 in 773 W/m2
13:19 61.0 °F 53.4 °F 29.96 in North 6.0 mph 14.0 mph 76 % 0.00 in 782 W/m2
13:24 61.5 °F 53.5 °F 29.96 in North 5.0 mph 12.0 mph 75 % 0.00 in 554 W/m2
13:26 61.7 °F 53.3 °F 29.96 in NNW 6.0 mph 10.0 mph 74 % 0.00 in 705 W/m2
13:31 62.4 °F 53.6 °F 29.96 in NNW 6.0 mph 13.0 mph 73 % 0.00 in 921 W/m2
13:36 62.6 °F 53.1 °F 29.96 in North 7.0 mph 16.0 mph 71 % 0.00 in 721 W/m2
13:41 62.4 °F 52.5 °F 29.96 in North 7.0 mph 16.0 mph 70 % 0.00 in 162 W/m2
13:46 62.1 °F 52.5 °F 29.96 in North 7.0 mph 12.0 mph 71 % 0.00 in 179 W/m2
13:51 62.1 °F 52.9 °F 29.96 in North 7.0 mph 16.0 mph 72 % 0.00 in 733 W/m2
13:56 62.4 °F 52.5 °F 29.96 in North 8.0 mph 18.0 mph 70 % 0.00 in 853 W/m2
14:02 62.4 °F 52.1 °F 29.96 in North 8.0 mph 18.0 mph 69 % 0.00 in 246 W/m2
14:07 62.2 °F 52.3 °F 29.95 in NNE 7.0 mph 15.0 mph 70 % 0.00 in 336 W/m2
14:12 62.2 °F 52.3 °F 29.95 in North 7.0 mph 15.0 mph 70 % 0.00 in 285 W/m2
14:17 62.1 °F 52.5 °F 29.95 in North 8.0 mph 15.0 mph 71 % 0.00 in 712 W/m2
14:22 62.2 °F 52.7 °F 29.95 in North 8.0 mph 18.0 mph 71 % 0.00 in 789 W/m2
14:27 63.0 °F 53.4 °F 29.95 in NNW 8.0 mph 18.0 mph 71 % 0.00 in 788 W/m2
14:32 63.0 °F 52.6 °F 29.95 in North 8.0 mph 16.0 mph 69 % 0.00 in 754 W/m2
14:37 63.3 °F 52.6 °F 29.95 in North 8.0 mph 15.0 mph 68 % 0.00 in 199 W/m2
14:42 63.0 °F 52.2 °F 29.95 in North 8.0 mph 16.0 mph 68 % 0.00 in 221 W/m2
14:47 62.4 °F 51.3 °F 29.96 in North 9.0 mph 16.0 mph 67 % 0.00 in 640 W/m2
14:52 62.4 °F 52.1 °F 29.95 in North 8.0 mph 16.0 mph 69 % 0.00 in 649 W/m2
14:57 63.0 °F 52.2 °F 29.95 in North 7.0 mph 13.0 mph 68 % 0.00 in 387 W/m2
15:02 63.1 °F 52.0 °F 29.96 in North 9.0 mph 16.0 mph 67 % 0.00 in 608 W/m2
15:07 63.1 °F 52.8 °F 29.96 in North 10.0 mph 19.0 mph 69 % 0.00 in 816 W/m2
15:12 62.4 °F 51.7 °F 29.96 in NNE 11.0 mph 24.0 mph 68 % 0.00 in 116 W/m2
15:17 61.3 °F 51.9 °F 29.96 in North 11.0 mph 24.0 mph 71 % 0.00 in 179 W/m2
15:22 60.6 °F 52.3 °F 29.96 in North 9.0 mph 20.0 mph 74 % 0.00 in 206 W/m2
15:27 60.1 °F 53.5 °F 29.96 in North 8.0 mph 15.0 mph 79 % 0.00 in 132 W/m2
15:32 59.5 °F 54.0 °F 29.96 in North 7.0 mph 15.0 mph 82 % 0.00 in 169 W/m2
15:37 59.2 °F 54.0 °F 29.96 in North 7.0 mph 12.0 mph 83 % 0.00 in 171 W/m2
15:42 58.8 °F 54.0 °F 29.96 in NNW 6.0 mph 12.0 mph 84 % 0.00 in 192 W/m2
15:47 58.6 °F 53.8 °F 29.96 in North 5.0 mph 12.0 mph 84 % 0.00 in 250 W/m2
15:52 58.8 °F 54.0 °F 29.96 in North 5.0 mph 12.0 mph 84 % 0.00 in 265 W/m2
15:57 59.0 °F 54.5 °F 29.96 in NNW 5.0 mph 11.0 mph 85 % 0.00 in 195 W/m2
16:02 59.2 °F 54.7 °F 29.96 in NNW 4.0 mph 10.0 mph 85 % 0.01 in 236 W/m2
16:07 59.2 °F 54.7 °F 29.96 in North 5.0 mph 12.0 mph 85 % 0.01 in 185 W/m2
16:12 58.8 °F 54.0 °F 29.96 in North 7.0 mph 19.0 mph 84 % 0.01 in 185 W/m2
16:17 58.8 °F 54.0 °F 29.96 in North 8.0 mph 19.0 mph 84 % 0.01 in 167 W/m2
16:22 58.5 °F 53.3 °F 29.97 in North 8.0 mph 16.0 mph 83 % 0.01 in 167 W/m2
16:27 58.3 °F 53.5 °F 29.96 in NNW 7.0 mph 16.0 mph 84 % 0.01 in 155 W/m2
16:33 58.3 °F 53.5 °F 29.97 in NNW 5.0 mph 11.0 mph 84 % 0.01 in 137 W/m2
16:38 57.9 °F 53.4 °F 29.97 in North 5.0 mph 11.0 mph 85 % 0.02 in 118 W/m2
16:43 57.7 °F 53.6 °F 29.97 in North 6.0 mph 15.0 mph 86 % 0.02 in 84 W/m2
16:48 57.4 °F 53.5 °F 29.97 in North 7.0 mph 15.0 mph 87 % 0.02 in 74 W/m2
16:53 56.8 °F 53.0 °F 29.97 in North 7.0 mph 15.0 mph 87 % 0.02 in 84 W/m2
16:58 55.9 °F 52.1 °F 29.97 in North 7.0 mph 14.0 mph 87 % 0.02 in 98 W/m2
17:03 55.6 °F 51.8 °F 29.97 in NNW 6.0 mph 13.0 mph 87 % 0.02 in 127 W/m2
17:08 55.6 °F 52.1 °F 29.97 in NNW 5.0 mph 10.0 mph 88 % 0.02 in 100 W/m2
17:13 55.6 °F 52.4 °F 29.97 in NW 4.0 mph 8.0 mph 89 % 0.02 in 86 W/m2
17:18 55.6 °F 52.4 °F 29.97 in NW 3.0 mph 6.0 mph 89 % 0.02 in 70 W/m2
17:23 55.8 °F 52.6 °F 29.97 in NNW 3.0 mph 8.0 mph 89 % 0.02 in 62 W/m2
17:28 55.8 °F 52.6 °F 29.97 in NNW 4.0 mph 9.0 mph 89 % 0.02 in 81 W/m2
17:33 55.8 °F 52.9 °F 29.97 in NW 3.0 mph 9.0 mph 90 % 0.02 in 74 W/m2
17:38 55.9 °F 53.0 °F 29.97 in WNW 3.0 mph 7.0 mph 90 % 0.01 in 42 W/m2
17:43 55.9 °F 53.0 °F 29.97 in WNW 3.0 mph 7.0 mph 90 % 0.01 in 33 W/m2
17:48 55.8 °F 52.9 °F 29.97 in NW 3.0 mph 6.0 mph 90 % 0.00 in 35 W/m2
17:53 55.8 °F 52.9 °F 29.97 in NW 3.0 mph 7.0 mph 90 % 0.00 in 35 W/m2
17:58 55.6 °F 52.7 °F 29.97 in NW 3.0 mph 7.0 mph 90 % 0.00 in 74 W/m2
18:03 55.8 °F 53.2 °F 29.97 in NW 3.0 mph 7.0 mph 91 % 0.00 in 97 W/m2
18:08 55.9 °F 53.4 °F 29.98 in NW 4.0 mph 10.0 mph 91 % 0.00 in 109 W/m2
18:13 55.9 °F 53.0 °F 29.98 in WNW 5.0 mph 10.0 mph 90 % 0.00 in 98 W/m2
18:18 56.1 °F 53.2 °F 29.98 in WNW 5.0 mph 9.0 mph 90 % 0.00 in 84 W/m2
18:23 55.9 °F 52.7 °F 29.98 in NW 5.0 mph 9.0 mph 89 % 0.00 in 58 W/m2
18:28 55.8 °F 52.6 °F 29.98 in NW 5.0 mph 9.0 mph 89 % 0.00 in 30 W/m2
18:33 55.6 °F 52.4 °F 29.98 in WNW 5.0 mph 9.0 mph 89 % 0.00 in 37 W/m2
18:38 55.4 °F 52.2 °F 29.98 in WNW 5.0 mph 8.0 mph 89 % 0.00 in 23 W/m2
18:43 55.2 °F 52.3 °F 29.98 in WNW 4.0 mph 7.0 mph 90 % 0.00 in 16 W/m2
18:48 55.0 °F 52.2 °F 29.98 in NW 4.0 mph 7.0 mph 90 % 0.00 in 14 W/m2
18:54 54.9 °F 52.0 °F 29.98 in WNW 4.0 mph 8.0 mph 90 % 0.00 in 14 W/m2
18:59 54.7 °F 52.1 °F 29.98 in WNW 5.0 mph 9.0 mph 91 % 0.00 in 11 W/m2
19:04 54.5 °F 51.9 °F 29.99 in WNW 5.0 mph 9.0 mph 91 % 0.00 in 7 W/m2
19:09 54.3 °F 51.7 °F 29.99 in NW 5.0 mph 8.0 mph 91 % 0.00 in 5 W/m2
19:14 54.1 °F 51.9 °F 29.99 in NW 4.0 mph 9.0 mph 92 % 0.00 in 0 W/m2
19:19 54.1 °F 51.9 °F 29.99 in NW 4.0 mph 9.0 mph 92 % 0.00 in 0 W/m2
19:24 54.1 °F 51.9 °F 29.99 in NW 5.0 mph 8.0 mph 92 % 0.00 in 0 W/m2
19:34 54.0 °F 51.7 °F 30.00 in WNW 5.0 mph 12.0 mph 92 % 0.00 in 0 W/m2
19:39 54.0 °F 51.7 °F 30.00 in WNW 5.0 mph 9.0 mph 92 % 0.00 in 0 W/m2
19:44 53.8 °F 51.5 °F 30.00 in NW 4.0 mph 9.0 mph 92 % 0.00 in 0 W/m2
19:49 53.8 °F 51.8 °F 30.00 in NW 4.0 mph 7.0 mph 93 % 0.00 in 0 W/m2
19:54 53.8 °F 51.5 °F 30.00 in NW 4.0 mph 7.0 mph 92 % 0.00 in 0 W/m2
19:59 53.6 °F 51.6 °F 30.00 in NW 4.0 mph 7.0 mph 93 % 0.00 in 0 W/m2
20:04 53.4 °F 51.4 °F 30.00 in WNW 4.0 mph 7.0 mph 93 % 0.00 in 0 W/m2
20:09 53.4 °F 51.4 °F 30.01 in WNW 4.0 mph 7.0 mph 93 % 0.00 in 0 W/m2
20:14 53.2 °F 51.3 °F 30.01 in WNW 4.0 mph 8.0 mph 93 % 0.00 in 0 W/m2
20:19 53.2 °F 51.3 °F 30.01 in WNW 5.0 mph 8.0 mph 93 % 0.00 in 0 W/m2
20:24 53.1 °F 51.1 °F 30.01 in WNW 4.0 mph 7.0 mph 93 % 0.00 in 0 W/m2
20:29 53.1 °F 51.1 °F 30.01 in WNW 5.0 mph 8.0 mph 93 % 0.00 in 0 W/m2
20:34 53.1 °F 51.1 °F 30.02 in WNW 5.0 mph 8.0 mph 93 % 0.00 in 0 W/m2
20:39 53.1 °F 51.4 °F 30.02 in WNW 5.0 mph 8.0 mph 94 % 0.00 in 0 W/m2
20:44 53.1 °F 51.4 °F 30.02 in WNW 5.0 mph 7.0 mph 94 % 0.00 in 0 W/m2
20:49 53.1 °F 51.4 °F 30.02 in WNW 5.0 mph 8.0 mph 94 % 0.00 in 0 W/m2
20:54 53.1 °F 51.4 °F 30.02 in WNW 5.0 mph 8.0 mph 94 % 0.00 in 0 W/m2
20:59 53.1 °F 51.4 °F 30.02 in WNW 5.0 mph 8.0 mph 94 % 0.00 in 0 W/m2
21:04 53.1 °F 51.4 °F 30.02 in WNW 4.0 mph 7.0 mph 94 % 0.00 in 0 W/m2
21:09 53.1 °F 51.4 °F 30.02 in WNW 4.0 mph 8.0 mph 94 % 0.00 in 0 W/m2
21:14 53.1 °F 51.4 °F 30.02 in NW 3.0 mph 8.0 mph 94 % 0.00 in 0 W/m2
21:19 53.1 °F 51.4 °F 30.02 in NW 3.0 mph 7.0 mph 94 % 0.00 in 0 W/m2
21:24 53.1 °F 51.4 °F 30.02 in NW 4.0 mph 11.0 mph 94 % 0.00 in 0 W/m2
21:29 53.1 °F 51.4 °F 30.02 in NW 5.0 mph 11.0 mph 94 % 0.00 in 0 W/m2
21:34 53.1 °F 51.4 °F 30.02 in NW 4.0 mph 8.0 mph 94 % 0.00 in 0 W/m2
21:39 53.1 °F 51.4 °F 30.02 in NW 4.0 mph 7.0 mph 94 % 0.00 in 0 W/m2
21:45 53.1 °F 51.4 °F 30.02 in NW 4.0 mph 8.0 mph 94 % 0.00 in 0 W/m2
21:50 53.1 °F 51.4 °F 30.02 in NW 5.0 mph 8.0 mph 94 % 0.00 in 0 W/m2
21:55 53.1 °F 51.4 °F 30.02 in NW 5.0 mph 8.0 mph 94 % 0.00 in 0 W/m2
22:00 53.2 °F 51.6 °F 30.02 in NW 5.0 mph 8.0 mph 94 % 0.00 in 0 W/m2
22:05 53.2 °F 51.6 °F 30.02 in NW 4.0 mph 9.0 mph 94 % 0.00 in 0 W/m2
22:10 53.2 °F 51.6 °F 30.02 in NNW 5.0 mph 9.0 mph 94 % 0.00 in 0 W/m2
22:15 53.2 °F 51.6 °F 30.03 in NW 5.0 mph 8.0 mph 94 % 0.00 in 0 W/m2
22:20 53.2 °F 51.6 °F 30.03 in NW 4.0 mph 8.0 mph 94 % 0.00 in 0 W/m2
22:25 53.2 °F 51.6 °F 30.03 in NW 4.0 mph 8.0 mph 94 % 0.00 in 0 W/m2
22:30 53.2 °F 51.6 °F 30.03 in NW 4.0 mph 8.0 mph 94 % 0.00 in 0 W/m2
22:35 53.2 °F 51.8 °F 30.03 in NW 3.0 mph 8.0 mph 95 % 0.00 in 0 W/m2
22:40 53.2 °F 51.8 °F 30.03 in NW 3.0 mph 8.0 mph 95 % 0.00 in 0 W/m2
22:45 53.2 °F 51.8 °F 30.03 in NW 3.0 mph 8.0 mph 95 % 0.00 in 0 W/m2
22:50 53.2 °F 51.8 °F 30.03 in NW 3.0 mph 8.0 mph 95 % 0.00 in 0 W/m2
22:55 53.2 °F 51.8 °F 30.03 in NW 3.0 mph 7.0 mph 95 % 0.00 in 0 W/m2
23:00 53.1 °F 51.4 °F 30.03 in NW 3.0 mph 6.0 mph 94 % 0.00 in 0 W/m2
23:05 53.1 °F 51.4 °F 30.03 in NW 3.0 mph 6.0 mph 94 % 0.00 in 0 W/m2
23:10 53.1 °F 51.4 °F 30.03 in NW 3.0 mph 9.0 mph 94 % 0.00 in 0 W/m2
23:15 53.1 °F 51.7 °F 30.03 in NW 4.0 mph 10.0 mph 95 % 0.00 in 0 W/m2
23:20 53.1 °F 51.7 °F 30.03 in NW 4.0 mph 10.0 mph 95 % 0.00 in 0 W/m2
23:25 53.1 °F 51.7 °F 30.03 in NW 4.0 mph 9.0 mph 95 % 0.00 in 0 W/m2
23:30 53.1 °F 51.7 °F 30.03 in NW 3.0 mph 9.0 mph 95 % 0.00 in 0 W/m2
23:35 53.1 °F 51.7 °F 30.03 in NNW 3.0 mph 7.0 mph 95 % 0.00 in 0 W/m2
23:40 52.9 °F 51.5 °F 30.03 in NNW 4.0 mph 8.0 mph 95 % 0.00 in 0 W/m2
23:45 52.9 °F 51.5 °F 30.03 in NNW 4.0 mph 8.0 mph 95 % 0.00 in 0 W/m2
23:50 52.9 °F 51.5 °F 30.03 in NNW 3.0 mph 7.0 mph 95 % 0.00 in 0 W/m2
23:55 52.9 °F 51.5 °F 30.03 in NNW 2.0 mph 6.0 mph 95 % 0.00 in 0 W/m2
Delerius-Weather
Compliments of Weather Underground - 2.25 mb

Data updates at regular intervals.